Regional Weather Roundup
Issued by NWS

Home | Current Version | Previous Version | Text Only | Print | Product List | Glossary Off
Versions: 1 2 3 4 5 6 7 8 9 10 11 12 13 14 15 16 17 18 19 20 21 22 23 24 25 26 27 28 29 30 31 32 33 34 35 36 37 38 39 40 41 42 43 44 45 46 47 48 49 50

000
ASUS43 KFSD 201202
RWRSD

WEATHER ROUNDUP FOR SOUTH DAKOTA
NATIONAL WEATHER SERVICE SIOUX FALLS SD
600 AM CST SAT JAN 20 2018

NOTE: "FAIR" INDICATES FEW OR NO CLOUDS BELOW 12,000 FEET WITH NO
SIGNIFICANT WEATHER AND/OR OBSTRUCTIONS TO VISIBILITY.


SDZ001>005-009-010-012>017-201300-
NORTHWEST AND NORTH CENTRAL SOUTH DAKOTA

CITY           SKY/WX    TMP DP  RH WIND       PRES   REMARKS
BUFFALO          N/A     34  30  85 W15       29.77R WCI  24
FAITH            N/A     34  34 100 W5        29.83R WCI  30
MOBRIDGE       CLOUDY    36  31  82 CALM      29.80R
$$

SDZ012>016-024>037-041>051-057-063-072>074-201300-
SOUTHWEST AND SOUTH CENTRAL SOUTH DAKOTA

CITY           SKY/WX    TMP DP  RH WIND       PRES   REMARKS
RAPID CTY ARPT LGT RAIN  34  32  92 N18       29.84R WCI  23
PIERRE         CLOUDY    34  32  92 NW6       29.81S WCI  29
CUSTER         CLOUDY    28  24  85 N3        29.78R
ELLSWORTH AFB  FLURRIES  33  33 100 NW13      29.84  WCI  24
PHILIP         MOCLDY    30  30 100 W3        29.83R
PINE RIDGE     PTCLDY    23  22  96 NW6       29.80R WCI  16
SPEARFISH      LGT SNOW  32  32 100 W9        29.86R WCI  24
WINNER         FAIR      29  26  89 CALM      29.82R
$$

SDZ004>011-016>023-039-040-201300-
NORTHEAST SOUTH DAKOTA

CITY           SKY/WX    TMP DP  RH WIND       PRES   REMARKS
ABERDEEN       MOCLDY    27  25  92 SE3       29.81S
WATERTOWN      CLOUDY    27  26  96 CALM      29.80R
BROOKINGS      CLOUDY    24  22  91 CALM      29.81S
SISSETON         N/A     37  29  72 W9        29.79R
$$

SDZ017-020-022-023-036>040-048>070-201300-
SOUTHEAST SOUTH DAKOTA

CITY           SKY/WX    TMP DP  RH WIND       PRES   REMARKS
SIOUX FALLS    CLOUDY    23  23 100 CALM      29.82R
HURON          MOCLDY    24  23  96 NW3       29.84R
CHAMBERLAIN    CLEAR     28  28 100 CALM      29.83S
MITCHELL       CLEAR     25  24  96 SW5       29.84R WCI  19
YANKTON        CLOUDY    28  26  92 NW3       29.83R
$$

ABBREVIATIONS USED IN REMARKS
   TC - TEMPERATURE IN CELSIUS
  WCI - WIND CHILL INDEX
   HX - HEAT INDEX
  VSB - VISIBILITY




USA.gov is the U.S. government's official web portal to all federal, state and local government web resources and services.